Location: ??????????
(54.8537°N, 38.8755°E)
Time: 10:54:23
(UTC+00:00)

Tiros 1 despin weight - Pass Details

Date: 15 September 2024
Orbit: 573 x 615 km, 48.2° (Epoch: 03 October)

Event Time Altitude Azimuth Distance (km) Brightness Sun altitude
Rises 00:29:44 0° 203° (SSW) 2,869 - -20.3°
Reaches altitude 10° 00:32:55 10° 180° (S) 1,974 - -19.9°
Exits shadow 00:34:17 14° 163° (SSE) 1,752 ? -19.8°
Maximum altitude 00:35:25 15° 146° (SSE) 1,692 ? -19.7°
Drops below altitude 10° 00:37:55 10° 113° (ESE) 1,984 ? -19.4°
Sets 00:41:08 0° 90° (E) 2,894 ? -19.0°
